Regional Weather Roundup
Issued by NWS

Home | Current Version | Previous Version | Text Only | Print | Product List | Glossary Off
Versions: 1 2 3 4 5 6 7 8 9 10 11 12 13 14 15 16 17 18 19 20 21 22 23 24 25 26 27 28 29 30 31 32 33 34 35 36 37 38 39 40 41 42 43 44 45 46 47 48 49 50

000
ASUS45 KBOU 241007
RWRCO

WEATHER ROUNDUP FOR COLORADO
NATIONAL WEATHER SERVICE DENVER/BOULDER CO
400 AM MDT SAT JUN 24 2017

NOTE: "FAIR" INDICATES FEW OR NO CLOUDS BELOW 12000 FEET WITH NO
SIGNIFICANT WEATHER AND/OR OBSTRUCTIONS TO VISIBILITY.

COZ001>005-013-030-031-241100-
...NORTHWEST COLORADO...

CITY           SKY/WX    TMP DP  RH WIND       PRES   REMARKS
CRAIG          FAIR      40  34  79 SW3       30.27R
HAYDEN         FAIR      45  28  53 SE6       30.26S
MEEKER         FAIR      47  34  60 SE7       30.27S
RABBIT EARS PA FAIR      45  27  49 W6        30.47F
STEAMBOAT SPGS FAIR      43  34  71 CALM      30.28S
WALDEN         FAIR      34  30  86 SE5       30.36S WCI  30
$$

COZ006>008-011-241100-
...WEST CENTRAL VALLEYS...

CITY           SKY/WX    TMP DP  RH WIND       PRES   REMARKS
GRAND JUNCTION FAIR      67  25  20 CALM      30.10S
MONTROSE       FAIR      56  31  38 SE8       30.19R
EAGLE          FAIR      47  27  45 CALM      30.30S
RIFLE          FAIR      53  30  41 NE7       30.20R
DELTA          FAIR      60  31  33 CALM      30.14S
NUCLA          NOT AVBL
$$

COZ017>023-064>068-241100-
...SOUTHWEST COLORADO...

CITY           SKY/WX    TMP DP  RH WIND       PRES   REMARKS
DURANGO        FAIR      52  22  30 E9        30.23R
CORTEZ         FAIR      50  27  40 E6        30.19R
PAGOSA SPRINGS FAIR      52  20  28 CALM      30.30S
TELLURIDE      FAIR      51  21  30 E5        30.43S
WOLF CREEK PAS FAIR      50  10  20 W6        30.65F
$$

COZ009-010-012-014-032>034-037-058>063-241100-
...CENTRAL COLORADO...

CITY           SKY/WX    TMP DP  RH WIND       PRES   REMARKS
ASPEN          FAIR      46  29  51 SW5       30.32F
BUENA VISTA    CLOUDY    51  44  76 E3        30.42S
COPPER MTN     FAIR      46  19  34 W12       30.59S
BERTHOUD PASS  FAIR      37  27  65 NW24      30.59F
COTTONWOOD PAS CLOUDY    46  43  87 NW3       30.49F
GUNNISON       FAIR      45  32  60 NE3       30.34S
KREMMLING      NOT AVBL
LEADVILLE      CLOUDY    42  37  82 W5        30.48F
MONARCH PASS   FAIR      45  21  39 SW12      30.69F
SALIDA         CLOUDY    54  47  77 SE5       30.47F
SUNLIGHT       FAIR      46  19  34 CALM      30.54F
WILKERSON PASS HVY SNOW  36  34  93 SW5       30.57F VSB<1/4
$$

COZ069>075-241100-
...SAN LUIS VALLEY/SANGRE DE CRISTO MOUNTAINS...

CITY           SKY/WX    TMP DP  RH WIND       PRES   REMARKS
ALAMOSA        FAIR      46  42  86 E5        30.33R
DEL NORTE      FAIR      47  37  70 CALM      30.36S
LA VETA PASS   FOG       39  37  93 SE5       30.61S VSB<1/4
SAGUACHE       FAIR      43  27  52 N6        30.36S
$$

COZ035-036-038>040-241100-
...NORTHERN COLORADO FRONT RANGE...

CITY           SKY/WX    TMP DP  RH WIND       PRES   REMARKS
DENVER INTL AP MOCLDY    48  44  86 SE8       30.29F
DMNS CITY PARK   N/A     49  47  93 E9        30.28F
AURORA         MOCLDY    48  47  97 SE6       30.30F
FRONT RANGE AP CLOUDY    54  50  87 SE7       30.31F
ERIE MUNI ARPT FAIR      51  46  83 CALM      30.28F
BOULDER MUN AP FAIR      48  46  93 CALM      30.29S
CENTENNIAL     FAIR      49  47  93 S7        30.30F
BROOMFIELD     FAIR      50  45  81 CALM      30.30F
FORT COLLINS   CLOUDY    53  49  86 E7        30.30S
LONGMONT       FAIR      49  46  86 CALM      30.31S
$$

COZ041-046-047-076>085-087-088-241100-
...PIKES PEAK/PALMER DIVIDE AND SOUTHERN FOOTHILLS...

CITY           SKY/WX    TMP DP  RH WIND       PRES   REMARKS
COLO. SPRINGS  CLOUDY    54  49  83 SE6       30.34F
A. F. ACADEMY  CLOUDY    52  49  87 CALM      30.34F
SCHRIEVER AFB  CLOUDY    53  48  83 W5        30.35F
CHEYENNE MTN   MOCLDY    52  43  72 S12       30.30F
ELLICOTT       CLOUDY   N/A N/A N/A SW5       30.33F
FALCON           N/A     51  49  92 S9        30.37F
FORT CARSON    CLOUDY    57  47  69 S9        30.32F
LIMON          CLOUDY    54  45  71 N3        30.31F
MONUMENT HILL  CLOUDY    48  46  93 S8        30.37F
CANON CITY     CLOUDY    57  54  88 CALM      30.31F
WALSENBURG     CLOUDY    55  50  82 SW3       30.35S
TRINIDAD       CLOUDY    57  48  72 NW6       30.33F
$$

COZ042>045-048>051-090-091-241100-
...NORTHEAST COLORADO...

CITY           SKY/WX    TMP DP  RH WIND       PRES   REMARKS
GREELEY ARPT   MOCLDY    53  51  93 E3        30.30S
AKRON          FAIR      53  36  52 SE5       30.29S
BURLINGTON     FAIR      50  46  86 NW6       30.27S
WRAY           MOCLDY    52  41  66 CALM      30.25F
YUMA           FAIR      50  41  71 CALM      30.26F
STERLING       CLOUDY    55  43  62 NE5       30.27S
HOLYOKE        NOT AVBL
FORT MORGAN    FAIR      49  47  90 E5        30.29S
$$

COZ086-089-092>099-241100-
...SOUTHEAST COLORADO...

CITY           SKY/WX    TMP DP  RH WIND       PRES   REMARKS
PUEBLO         CLOUDY    60  53  77 W3        30.28F
LA JUNTA       CLOUDY    64  49  57 SE5       30.27S
LAMAR          CLOUDY    63  48  58 CALM      30.23F
SPRINGFIELD      N/A     60  48  64 CALM      30.27F
$$



USA.gov is the U.S. government's official web portal to all federal, state and local government web resources and services.